This is the latest recevied weather packets stored in our database for station/object KB3MVG-13. If no packets are shown the sender has not sent any weather packets the latest 10 day(s).
| Time | Temp. | Humidity | Pressure | Rain* | Wind** | Luminosity | Snow |
|---|---|---|---|---|---|---|---|
| 1777760415 | 20° C | 8% | 1022.7 hPa | 0 mm | - | 622 W/m² | - |
| 1777755037 | 20° C | 10% | 1024.6 hPa | 0 mm | - | 839 W/m² | - |
| 1777754417 | 20° C | 11% | 1024.7 hPa | 0 mm | - | 854 W/m² | - |
| 1777753217 | 19.44° C | 12% | 1025 hPa | 0 mm | - | 886 W/m² | - |
| 1777751417 | 18.89° C | 12% | 1025.1 hPa | 0 mm | - | 923 W/m² | - |
| 1777743615 | 16.11° C | 16% | 1026.8 hPa | 0 mm | - | 751 W/m² | - |
| 1777738817 | 14.44° C | 19% | 1027.4 hPa | 0 mm | - | 240 W/m² | - |
| 1777737616 | 15° C | 19% | 1027.6 hPa | 0 mm | - | 44 W/m² | - |
| 1777731016 | 10.56° C | 29% | 1027.9 hPa | 0 mm | - | 278 W/m² | - |
| 1777728616 | 8.89° C | 29% | 1027.8 hPa | 0 mm | - | 248 W/m² | - |
| 1777726856 | 7.78° C | 31% | 1027.2 hPa | 0 mm | - | 144 W/m² | - |
| 1777726236 | 7.78° C | 32% | 1027.1 hPa | 0 mm | - | 109 W/m² | - |
| 1777723216 | 7.22° C | 33% | 1026.6 hPa | 0 mm | - | 2 W/m² | - |
| 1777722616 | 7.22° C | 33% | 1026.6 hPa | 0 mm | - | 0 W/m² | - |
| 1777720816 | 7.22° C | 34% | 1027.1 hPa | 0 mm | - | 0 W/m² | - |
| 1777712416 | 6.67° C | 40% | 1026.4 hPa | 0 mm | - | 0 W/m² | - |
| 1777711816 | 7.22° C | 39% | 1026.8 hPa | 0 mm | - | 0 W/m² | - |
| 1777711216 | 7.22° C | 38% | 1026.8 hPa | 0 mm | - | 0 W/m² | - |
| 1777709436 | 7.78° C | 37% | 1026.9 hPa | 0 mm | - | 0 W/m² | - |
| 1777705216 | 7.78° C | 39% | 1026.7 hPa | 0 mm | - | 0 W/m² | - |
| 1777702836 | 8.33° C | 38% | 1027.2 hPa | 0 mm | - | 0 W/m² | - |
| 1777699815 | 9.44° C | 34% | 1027.2 hPa | 0 mm | - | 0 W/m² | - |
| 1777694435 | 10° C | 36% | 1026.4 hPa | 0 mm | - | 0 W/m² | - |
| 1777684215 | 13.89° C | 16% | 1024.6 hPa | 0 mm | - | 102 W/m² | - |
| 1777675215 | 13.89° C | 17% | 1024.5 hPa | 0 mm | - | 494 W/m² | - |
* Rain latest hour (hover to see other rain measurements)
** Current wind speed in m/s (hover to see current wind gust speed)